Simultaneous Nadir Overpasses (SNOs) Predictions

Prediction of SNOs between GOES-15 and METOP-C Satellite Orbit:

Table of predicted SNOs for the next 14.0 days since TLE Epoch: 10/1/2023
Index Date Time (GOES-15) GOES-15 Lat,Lon METOP-C Lat,Lon Distance(km) Time Diff (sec)
1 10/01/2023 14:49:55 0.30, 96.45 0.96, 99.32 328.40 80
2 10/03/2023 03:11:33 -0.31, 94.71 -0.30, 94.68 2.54 80
3 10/04/2023 15:30:42 0.32, 93.19 -0.40, 90.01 363.10 80
4 10/05/2023 15:07:27 0.30, 92.14 0.94, 94.95 320.86 80
5 10/07/2023 03:29:06 -0.31, 90.39 -0.29, 90.31 9.37 80
6 10/08/2023 15:48:14 0.32, 88.87 -0.40, 85.63 368.67 80
7 10/09/2023 15:24:58 0.30, 87.81 0.89, 90.59 315.86 80
8 10/11/2023 03:46:37 -0.31, 86.06 -0.26, 85.94 13.92 80
9 10/12/2023 16:05:45 0.32, 84.52 -0.42, 81.27 371.40 80
10 10/13/2023 15:42:31 0.31, 83.46 0.94, 86.20 313.59 80
